www.pogodaiklimat.ru

Погода и климат >> Архив погоды >> Гана >> Tema


ПОГОДА в Tema

  • Прогноз погоды в Tema
  • Монитор погоды в Tema
  • Климат города

АРХИВ ПОГОДЫ в Tema

Время (UTC), дата Ветер
(напр.,м/с)
 
Видим.   Явления Облачность Т
(С)
Тd
(С)
f
(%)
Тe
(С)
Тes
(С)
Комфортность P
(гПа)
Po
(гПа)
Тmin
(С)
Tmax
(С)
R
(мм)
R24
(мм)
S
(см)
21 14.10 ЮЗ 3 12 км 6/5 330 м
[Sc Ac trans]
+27.5 +24.8 85 +39 +39 очень
душно
1011.7 1012.0
00 15.10 З 2 12 км 4/4 330 м
[Sc]
+27.2 +24.5 85 +38 +38 очень
душно
1011.7 1012.0
06 15.10 З 2 12 км 6/6 330 м
[]
+11.4 +24.4 100 +25.3
09 15.10 ЮЗ 3 14 км 6/5 480 м
[Cu med, cong Ac trans]
+29.1 +23.8 73 +40 +44 очень
душно
1013.4 1013.0
12 15.10 ЮЗ 5 14 км 4/3 480 м
[Cb cap Ac trans]
+29.8 +24.9 75 +43 +50 опасность
перегрева
1012.0 1012.0
15 15.10 З 5 14 км 8/5 360 м
[Cb cap Ac trans]
+28.6 +24.6 79 +41 +42 опасность
перегрева
1009.7 1010.0
21 15.10 ЮЗ 3 12 км 8/4 300 м
[Sc Ac trans]
+27.5 +24.9 86 +39 +39 очень
душно
1012.3 1012.0
03 16.10 ЮЗ 3 12 км 5/0
[Ac trans]
+25.5 +23.4 88 +34 +34 очень
душно
1011.2 1011.0
06 16.10 ЮЗ 3 14 км 5/0
[Ac trans]
+25.2 +23.6 91 +34 +34 очень
душно
1011.6 1012.0 +25.0
09 16.10 ЮЗ 2 15 км 8/4 480 м
[Cu med, cong Cs]
+29.5 +24.6 75 +42 +47 опасность
перегрева
1014.2 1014.0
12 16.10 ЮЗ 3 18 км 5/4 480 м
[Cu med, cong Ci sp]
+29.6 +24.7 75 +42 +52 опасность
перегрева
1012.5 1013.0
00 17.10 З 6 10 км {дождь} 9/5 300 м
[Sc Ac As]
+25.5 +24.1 92 +35 +35 очень
душно
1013.0 1013.0 20
03 17.10 ЮЗ 2 10 км 5/3 300 м
[Sc Ac trans]
+25.0 +24.0 94 +34 +34 очень
душно
1011.7 1012.0
06 17.10 штиль 0 12 км 5/3 300 м
[Sc Ac trans]
+24.9 +23.9 94 +34 +34 очень
душно
1011.6 1012.0 +24.9 20
09 17.10 ЮЗ 2 14 км 8/4 360 м
[Cu Sc Ac trans]
+27.2 +24.5 85 +38 +42 очень
душно
1013.1 1013.0
15 17.10 ЮЗ 5 17 км 5/3 500 м
[Cu med, cong Ac trans]
+29.4 +24.7 76 +42 +45 опасность
перегрева
1009.7 1010.0
21 17.10 ЮЗ 3 12 км 8/8 330 м
[Sc]
+27.4 +25.0 87 +39 +39 очень
душно
1012.4 1012.0
00 18.10 ЮЗ 2 12 км 4/4 330 м
[Sc]
+26.9 +24.9 89 +39 +39 очень
душно
1011.8 1012.0
06 18.10 З 2 14 км 8/3 330 м
[Sc Ac trans Ci sp]
+25.5 +24.5 94 +36 +36 очень
душно
1010.3 1010.0 +25.5
12 18.10 ЮЗ 4 18 км 5/4 500 м
[Cu med, cong Ci sp]
+29.8 +25.3 77 +44 +51 опасность
перегрева
1010.5 1011.0
15 18.10 ЮЗ 4 18 км 5/4 300 м
[Cu med, cong Ci sp]
+29.5 +25.5 79 +43 +47 опасность
перегрева
1008.4 1008.0
21 18.10 ЮЗ 3 11 км 8/5 330 м
[Sc Ac trans]
+27.6 +24.7 84 +39 +39 очень
душно
1011.8 1012.0
00 19.10 З 3 11 км 8/4 330 м
[Sc Ac trans]
+27.2 +24.7 86 +39 +39 очень
душно
1010.7 1011.0
21 19.10 ЮЗ 3 12 км 4/4 330 м
[Sc Ac trans]
+27.8 +25.0 85 +40 +40 очень
душно
1008.9 1009.0
00 20.10 ЮЗ 4 12 км 6/3 330 м
[Sc Ac trans]
+27.5 +24.8 85 +39 +39 очень
душно
1009.6 1010.0
03 20.10 ЮЗ 3 12 км 5/0
[Ac trans]
+26.5 +24.7 90
06 20.10 ЮЗ 3 14 км 5/0
[Ac trans]
+26.0 +24.6 92 +37 +37 очень
душно
1008.7 1009.0 +26.0
12 20.10 ЮЗ 3 18 км 3/3 480 м
[Cu med, cong]
+30.8 +24.9 71 +44 +56 опасность
перегрева
1009.2 1009.0
00 21.10 ЮЗ 3 12 км 6/3 300 м
[Sc Ac trans]
+27.5 +24.9 86 +39 +39 очень
душно
1009.4 1009.0
03 21.10 ЮЗ 3 12 км 8/4 300 м
[Sc Ac trans]
+27.0 +24.8 88 +39 +39 очень
душно
1007.6 1008.0
12 21.10 ЮЗ 3 17 км 8/3 500 м
[Cu med, cong Ac trans]
+30.2 +24.6 72 +43 +49 опасность
перегрева
1009.5 1010.0

 

Местоположение метеостанции Tema (Гана): широта 5.62 долгота 0.00 высота над уровнем моря 18 м.

В архиве по умолчанию представлена погода в Tema за последнюю неделю. Архивные данные за месяц целиком и за предыдущие месяцы, начиная с января 2011 года, Вы можете получить, выбрав интересующий диапазон дат из раскрывающегося списка и нажав кнопку "Ввод!".


*Определитесь, кто Вы:
робот инопланетянин человек

Внимание! Время в таблицах - всемирное. Для получения местного времени необходимо прибавить поправку, которая в Tema равна 1 ч.

Смотрите также архив погоды в соседних городах и на ближайших метеорологических станциях:

Погода в Accra (Гана) (19 км)
Погода в Akuse (Гана) (55 км)
Погода в Koforidua (Гана) (58 км)
Погода в Ada (Гана) (72 км)
Погода в Akatsi (Гана) (105 км)
Погода в Akim Oda (Гана) (114 км)
Погода в Ho (Гана) (121 км)
Погода в Saltpond (Гана) (127 км)
Погода в Abetifi (Гана) (143 км)
Погода в Lome (Того) (151 км)

Пояснения к столбцам:

Ветер - указаны скорость ветра в м/с - средняя за 10 мин, порывы в срок и между сроками (в фигурных скобках) и направление, откуда дует ветер: С - северный, СВ - северо-восточный, В - восточный, ЮВ - юго-восточный, Ю - южный, ЮЗ - юго-западный, З - западный, СЗ - северо-западный.
Видимость - горизонтальная дальность видимости в метрах или километрах. При видимости от 1 до 10 км при отсутствии осадков обычно наблюдается дымка, при ухудшении видимости до 1 км и менее - туман. В сухую погоду видимость может ухудшаться дымом, пылью или мглою.
Явления - указаны атмосферные явления, наблюдавшиеся в срок или в последний час перед сроком; фигурными скобками обозначены явления, наблюдавшиеся между сроками (за 1-3 часа до срока); квадратными скобками обозначены град или гололедные отложения с указанием их диаметра в мм.
Облачность - указаны через наклонную черту общая и нижняя облачность в баллах и высота нижней границы облаков в метрах; квадратными скобками обозначены формы облаков: Ci - перистые, Cs - перисто-слоистые, Cc - перисто-кучевые, Ac - высококучевые, As - высокослоистые, Sc - слоисто-кучевые, Ns - слоисто-дождевые, Cu - кучевые, Cb - кучево-дождевые. Подробнее классификацию облаков см. в Атласе облаков (PDF).
T - Температура воздуха - температура, измеренная на высоте 2 м над землей.
Td - Температура точки росы - температура, при понижении до которой содержащийся в воздухе водяной пар достигнет насыщения.
f - Относительная влажность воздуха - влажноcть воздуха, измеренная на высоте 2 м над землей.
Te - Эффективная температура - температура, которую ощущает одетый по сезону человек в тени. Характеристика душности погоды. При расчете учитывается влияние влажности воздуха и скорости ветра на теплоощущения человека.
Tes - Эффективная температура на солнце - температура, которую ощущает человек, с поправкой на солнечный нагрев. Характеристика знойности погоды. Зависит от высоты солнца над горизонтом, облачности и скорости ветра. Ночью, в пасмурную погоду, а также при ветре 12 м/с и более поправка равна нулю.
P - Атмосферное давление - приведенное к уровню моря атмосферное давление.
Po - Атмосферное давление - измеренное на уровне метеостанции атмосферное давление.
Tmin - Минимальная температура - минимум температуры воздуха на высоте 2 м над землей.
Tmax - Максимальная температура - максимум температуры воздуха на высоте 2 м над землей.
R - Количество осадков - Количество выпавших осадков за период времени, мм. При наведении курсора мыши на число - период времени, за который выпало указанное количество осадков.
R24 - Количество осадков - Количество выпавших осадков за 24 часа, мм.
S - Снежный покров - Высота снежного покрова, см. При наведении курсора мыши на число - состояние снежного покрова и степень покрытия местности в баллах.